Time,TemperatureF,DewpointF,PressureIn,WindDirection,WindDirectionDegrees,WindSpeedMPH,WindSpeedGustMPH,Humidity,HourlyPrecipIn,Conditions,Clouds,dailyrainin,SoftwareType,DateUTC
2013-03-16 00:00:00,31.1,29.8,29.89,North,9,0.0,0.0,95,0.00,,,0.00,LWC V2.11 B50,2013-03-16 04:00:00,
2013-03-16 00:02:00,31.1,29.8,29.90,North,9,0.0,0.0,95,0.00,,,0.00,LWC V2.11 B50,2013-03-16 04:02:00,
2013-03-16 00:07:00,31.1,29.8,29.89,North,9,0.0,0.0,95,0.00,,,0.00,LWC V2.11 B50,2013-03-16 04:07:00,
2013-03-16 00:12:00,31.0,29.7,29.89,North,8,0.0,0.0,95,0.00,,,0.00,LWC V2.11 B50,2013-03-16 04:12:00,
2013-03-16 00:17:00,30.9,29.6,29.89,North,8,0.0,0.0,95,0.00,,,0.00,LWC V2.11 B50,2013-03-16 04:17:00,
2013-03-16 00:22:00,30.9,29.6,29.89,North,9,0.0,0.0,95,0.00,,,0.00,LWC V2.11 B50,2013-03-16 04:22:00,
2013-03-16 00:27:00,30.9,29.6,29.89,North,9,0.0,0.0,95,0.00,,,0.00,LWC V2.11 B50,2013-03-16 04:27:00,
2013-03-16 00:32:00,30.8,29.5,29.89,North,9,0.0,0.0,95,0.00,,,0.00,LWC V2.11 B50,2013-03-16 04:32:00,
2013-03-16 00:37:00,30.8,29.5,29.89,North,9,0.0,0.0,95,0.00,,,0.00,LWC V2.11 B50,2013-03-16 04:37:00,
2013-03-16 00:42:00,30.8,29.5,29.89,North,9,0.0,0.0,95,0.00,,,0.00,LWC V2.11 B50,2013-03-16 04:42:00,
2013-03-16 00:47:00,30.7,29.4,29.89,North,9,0.0,0.0,95,0.00,,,0.00,LWC V2.11 B50,2013-03-16 04:47:00,
2013-03-16 00:52:00,30.7,29.4,29.89,North,9,0.0,0.0,95,0.00,,,0.00,LWC V2.11 B50,2013-03-16 04:52:00,
2013-03-16 00:57:00,30.7,29.4,29.89,North,9,0.0,0.0,95,0.00,,,0.00,LWC V2.11 B50,2013-03-16 04:57:00,
2013-03-16 01:00:00,30.7,29.4,29.88,North,8,0.0,0.0,95,0.00,,,0.00,LWC V2.11 B50,2013-03-16 05:00:00,
2013-03-16 01:05:00,30.7,29.4,29.88,North,9,0.0,0.0,95,0.00,,,0.00,LWC V2.11 B50,2013-03-16 05:05:00,
2013-03-16 01:10:00,30.6,29.3,29.88,North,9,0.0,0.0,95,0.00,,,0.00,LWC V2.11 B50,2013-03-16 05:10:00,
2013-03-16 01:15:00,30.6,29.3,29.88,North,9,0.0,0.0,95,0.00,,,0.00,LWC V2.11 B50,2013-03-16 05:15:00,
2013-03-16 01:20:00,30.5,29.2,29.87,North,9,0.0,0.0,95,0.00,,,0.00,LWC V2.11 B50,2013-03-16 05:20:00,
2013-03-16 01:25:00,30.5,29.2,29.87,North,9,0.0,0.0,95,0.00,,,0.00,LWC V2.11 B50,2013-03-16 05:25:00,
2013-03-16 01:30:00,30.4,29.1,29.87,North,9,0.0,0.0,95,0.00,,,0.00,LWC V2.11 B50,2013-03-16 05:30:00,
2013-03-16 01:35:00,30.4,29.1,29.87,North,9,0.0,0.0,95,0.00,,,0.00,LWC V2.11 B50,2013-03-16 05:35:00,
2013-03-16 01:40:00,30.4,29.1,29.86,North,8,0.0,0.0,95,0.00,,,0.00,LWC V2.11 B50,2013-03-16 05:40:00,
2013-03-16 01:45:00,30.4,29.1,29.86,North,9,0.0,0.0,95,0.00,,,0.00,LWC V2.11 B50,2013-03-16 05:45:00,
2013-03-16 01:50:00,30.4,29.1,29.86,North,8,0.0,0.0,95,0.00,,,0.00,LWC V2.11 B50,2013-03-16 05:50:00,
2013-03-16 01:56:00,30.5,29.2,29.86,North,9,0.0,0.0,95,0.00,,,0.00,LWC V2.11 B50,2013-03-16 05:56:00,
2013-03-16 02:01:00,30.4,29.1,29.86,North,8,0.0,0.0,95,0.00,,,0.00,LWC V2.11 B50,2013-03-16 06:01:00,
2013-03-16 02:06:00,30.5,29.2,29.86,North,9,0.0,0.0,95,0.00,,,0.00,LWC V2.11 B50,2013-03-16 06:06:00,
2013-03-16 02:11:00,30.5,29.2,29.86,North,9,0.0,0.0,95,0.00,,,0.00,LWC V2.11 B50,2013-03-16 06:11:00,
2013-03-16 02:17:00,30.5,29.2,29.86,North,9,0.0,0.0,95,0.00,,,0.00,LWC V2.11 B50,2013-03-16 06:17:00,
2013-03-16 02:22:00,30.5,29.2,29.86,North,9,0.0,0.0,95,0.00,,,0.00,LWC V2.11 B50,2013-03-16 06:22:00,
2013-03-16 02:27:00,30.5,29.2,29.86,North,9,0.0,0.0,95,0.00,,,0.00,LWC V2.11 B50,2013-03-16 06:27:00,
2013-03-16 02:32:00,30.5,29.2,29.85,North,9,0.0,0.0,95,0.00,,,0.00,LWC V2.11 B50,2013-03-16 06:32:00,
2013-03-16 02:37:00,30.5,29.2,29.85,North,9,0.0,0.0,95,0.00,,,0.00,LWC V2.11 B50,2013-03-16 06:37:00,
2013-03-16 02:42:00,30.5,29.2,29.85,North,9,0.0,0.0,95,0.00,,,0.00,LWC V2.11 B50,2013-03-16 06:42:00,
2013-03-16 02:47:00,30.5,29.2,29.85,North,9,0.0,0.0,95,0.00,,,0.00,LWC V2.11 B50,2013-03-16 06:47:00,
2013-03-16 02:52:00,30.5,29.2,29.85,North,9,0.0,0.0,95,0.00,,,0.00,LWC V2.11 B50,2013-03-16 06:52:00,
2013-03-16 02:57:00,30.5,29.2,29.85,North,9,0.0,0.0,95,0.00,,,0.00,LWC V2.11 B50,2013-03-16 06:57:00,
2013-03-16 03:02:00,30.5,29.2,29.84,North,9,0.0,0.0,95,0.00,,,0.00,LWC V2.11 B50,2013-03-16 07:02:00,
2013-03-16 03:07:00,30.5,29.2,29.84,North,8,0.0,0.0,95,0.00,,,0.00,LWC V2.11 B50,2013-03-16 07:07:00,
2013-03-16 03:12:00,30.5,29.2,29.84,NE,56,1.0,1.0,95,0.00,,,0.00,LWC V2.11 B50,2013-03-16 07:12:00,
2013-03-16 03:17:00,30.5,29.2,29.84,ENE,60,0.0,0.0,95,0.00,,,0.00,LWC V2.11 B50,2013-03-16 07:17:00,
2013-03-16 03:22:00,30.5,29.2,29.84,ENE,74,1.0,1.0,95,0.00,,,0.00,LWC V2.11 B50,2013-03-16 07:22:00,
2013-03-16 03:27:00,30.4,29.1,29.83,ENE,70,0.0,0.0,95,0.00,,,0.00,LWC V2.11 B50,2013-03-16 07:27:00,
2013-03-16 03:32:00,30.4,29.1,29.83,ENE,70,0.0,0.0,95,0.00,,,0.00,LWC V2.11 B50,2013-03-16 07:32:00,
2013-03-16 03:37:00,30.3,29.0,29.83,ENE,70,0.0,0.0,95,0.00,,,0.00,LWC V2.11 B50,2013-03-16 07:37:00,
2013-03-16 03:42:00,30.2,28.9,29.83,ENE,70,0.0,0.0,95,0.00,,,0.00,LWC V2.11 B50,2013-03-16 07:42:00,
2013-03-16 03:47:00,30.2,28.9,29.82,ENE,70,0.0,1.0,95,0.00,,,0.00,LWC V2.11 B50,2013-03-16 07:47:00,
2013-03-16 03:52:00,30.1,28.8,29.82,NNE,27,0.0,0.0,95,0.00,,,0.00,LWC V2.11 B50,2013-03-16 07:52:00,
2013-03-16 03:57:00,30.1,28.8,29.82,North,351,0.0,1.0,95,0.00,,,0.00,LWC V2.11 B50,2013-03-16 07:57:00,
2013-03-16 04:02:00,30.1,28.8,29.82,NE,53,0.0,0.0,95,0.00,,,0.00,LWC V2.11 B50,2013-03-16 08:02:00,
2013-03-16 04:07:00,30.0,28.7,29.82,East,84,0.0,0.0,95,0.00,,,0.00,LWC V2.11 B50,2013-03-16 08:07:00,
2013-03-16 04:12:00,30.0,28.7,29.82,NE,53,0.0,2.0,95,0.00,,,0.00,LWC V2.11 B50,2013-03-16 08:12:00,
2013-03-16 04:17:00,29.9,28.6,29.81,ENE,74,0.0,2.0,95,0.00,,,0.00,LWC V2.11 B50,2013-03-16 08:17:00,
2013-03-16 04:22:00,29.8,28.5,29.81,ENE,67,0.0,3.0,95,0.00,,,0.00,LWC V2.11 B50,2013-03-16 08:22:00,
2013-03-16 04:27:00,29.6,28.3,29.81,ENE,60,0.0,0.0,95,0.00,,,0.00,LWC V2.11 B50,2013-03-16 08:27:00,
2013-03-16 04:32:00,29.5,28.0,29.81,NE,54,1.0,1.0,94,0.00,,,0.00,LWC V2.11 B50,2013-03-16 08:32:00,
2013-03-16 04:37:00,29.4,27.9,29.81,East,88,1.0,2.0,94,0.00,,,0.00,LWC V2.11 B50,2013-03-16 08:37:00,
2013-03-16 04:42:00,29.3,27.8,29.81,East,94,2.0,3.0,94,0.00,,,0.00,LWC V2.11 B50,2013-03-16 08:42:00,
2013-03-16 04:48:00,29.2,27.4,29.81,ENE,68,0.0,2.0,93,0.00,,,0.00,LWC V2.11 B50,2013-03-16 08:48:00,
2013-03-16 04:53:00,29.1,27.3,29.81,ENE,63,0.0,2.0,93,0.00,,,0.00,LWC V2.11 B50,2013-03-16 08:53:00,
2013-03-16 04:58:00,29.0,27.2,29.81,ENE,78,0.0,1.0,93,0.00,,,0.00,LWC V2.11 B50,2013-03-16 08:58:00,
2013-03-16 05:03:00,29.0,27.2,29.81,ENE,74,0.0,0.0,93,0.00,,,0.00,LWC V2.11 B50,2013-03-16 09:03:00,
2013-03-16 05:08:00,28.9,27.1,29.80,ENE,72,0.0,1.0,93,0.00,,,0.00,LWC V2.11 B50,2013-03-16 09:08:00,
2013-03-16 05:13:00,28.9,27.1,29.80,ESE,122,0.0,2.0,93,0.00,,,0.00,LWC V2.11 B50,2013-03-16 09:13:00,
2013-03-16 05:18:00,28.7,26.9,29.80,ENE,58,1.0,3.0,93,0.00,,,0.00,LWC V2.11 B50,2013-03-16 09:18:00,
2013-03-16 05:23:00,28.4,26.6,29.80,East,96,1.0,2.0,93,0.00,,,0.00,LWC V2.11 B50,2013-03-16 09:23:00,
2013-03-16 05:28:00,28.1,26.1,29.79,ENE,75,1.0,2.0,92,0.00,,,0.00,LWC V2.11 B50,2013-03-16 09:28:00,
2013-03-16 05:33:00,27.8,25.8,29.79,ENE,70,1.0,3.0,92,0.00,,,0.00,LWC V2.11 B50,2013-03-16 09:33:00,
2013-03-16 05:38:00,27.7,25.7,29.79,ENE,77,2.0,3.0,92,0.00,,,0.00,LWC V2.11 B50,2013-03-16 09:38:00,
2013-03-16 05:43:00,27.6,25.6,29.79,East,92,1.0,1.0,92,0.00,,,0.00,LWC V2.11 B50,2013-03-16 09:43:00,
2013-03-16 05:48:00,27.6,25.6,29.79,East,84,1.0,1.0,92,0.00,,,0.00,LWC V2.11 B50,2013-03-16 09:48:00,
2013-03-16 05:53:00,27.6,25.6,29.78,ESE,110,0.0,1.0,92,0.00,,,0.00,LWC V2.11 B50,2013-03-16 09:53:00,
2013-03-16 05:58:00,27.6,25.6,29.79,East,86,0.0,0.0,92,0.00,,,0.00,LWC V2.11 B50,2013-03-16 09:58:00,
2013-03-16 06:03:00,27.5,25.5,29.79,East,84,0.0,1.0,92,0.00,,,0.00,LWC V2.11 B50,2013-03-16 10:03:00,
2013-03-16 06:08:00,27.5,25.5,29.79,ENE,70,1.0,2.0,92,0.00,,,0.00,LWC V2.11 B50,2013-03-16 10:08:00,
2013-03-16 06:13:00,27.5,25.5,29.79,East,88,0.0,0.0,92,0.00,,,0.00,LWC V2.11 B50,2013-03-16 10:13:00,
2013-03-16 06:18:00,27.6,25.6,29.79,East,79,0.0,0.0,92,0.00,,,0.00,LWC V2.11 B50,2013-03-16 10:18:00,
2013-03-16 06:23:00,27.6,25.6,29.79,ESE,117,1.0,1.0,92,0.00,,,0.00,LWC V2.11 B50,2013-03-16 10:23:00,
2013-03-16 06:28:00,27.6,25.6,29.80,East,89,0.0,0.0,92,0.00,,,0.00,LWC V2.11 B50,2013-03-16 10:28:00,
2013-03-16 06:33:00,27.6,25.6,29.81,NNE,32,0.0,1.0,92,0.00,,,0.00,LWC V2.11 B50,2013-03-16 10:33:00,
2013-03-16 06:38:00,27.6,25.6,29.81,NNE,32,0.0,0.0,92,0.00,,,0.00,LWC V2.11 B50,2013-03-16 10:38:00,
2013-03-16 06:43:00,27.5,25.5,29.80,ENE,74,0.0,1.0,92,0.00,,,0.00,LWC V2.11 B50,2013-03-16 10:43:00,
2013-03-16 06:48:00,27.5,25.5,29.80,ENE,72,0.0,2.0,92,0.00,,,0.00,LWC V2.11 B50,2013-03-16 10:48:00,
2013-03-16 06:53:00,27.3,25.3,29.80,ENE,77,1.0,3.0,92,0.00,,,0.00,LWC V2.11 B50,2013-03-16 10:53:00,
2013-03-16 06:58:00,27.2,25.2,29.80,East,83,0.0,2.0,92,0.00,,,0.00,LWC V2.11 B50,2013-03-16 10:58:00,
2013-03-16 07:03:00,27.2,25.2,29.81,NNE,15,0.0,0.0,92,0.00,,,0.00,LWC V2.11 B50,2013-03-16 11:03:00,
2013-03-16 07:08:00,27.1,25.1,29.82,ENE,64,0.0,0.0,92,0.00,,,0.00,LWC V2.11 B50,2013-03-16 11:08:00,
2013-03-16 07:13:00,27.0,25.0,29.82,ENE,74,0.0,2.0,92,0.00,,,0.00,LWC V2.11 B50,2013-03-16 11:13:00,
2013-03-16 07:18:00,26.9,24.9,29.81,SE,133,0.0,2.0,92,0.00,,,0.00,LWC V2.11 B50,2013-03-16 11:18:00,
2013-03-16 07:23:00,26.9,25.2,29.82,East,79,2.0,2.0,93,0.00,,,0.00,LWC V2.11 B50,2013-03-16 11:23:00,
2013-03-16 07:28:00,26.8,25.1,29.82,East,98,0.0,2.0,93,0.00,,,0.00,LWC V2.11 B50,2013-03-16 11:28:00,
2013-03-16 07:33:00,26.7,25.0,29.82,NE,56,0.0,0.0,93,0.00,,,0.00,LWC V2.11 B50,2013-03-16 11:33:00,
2013-03-16 07:38:00,26.8,25.1,29.81,ENE,75,0.0,0.0,93,0.00,,,0.00,LWC V2.11 B50,2013-03-16 11:38:00,
2013-03-16 07:43:00,26.8,25.1,29.81,ESE,115,0.0,1.0,93,0.00,,,0.00,LWC V2.11 B50,2013-03-16 11:43:00,
2013-03-16 07:48:00,26.8,25.1,29.80,ESE,104,0.0,1.0,93,0.00,,,0.00,LWC V2.11 B50,2013-03-16 11:48:00,
2013-03-16 07:53:00,26.8,25.1,29.80,East,81,0.0,0.0,93,0.00,,,0.00,LWC V2.11 B50,2013-03-16 11:53:00,
2013-03-16 07:58:00,26.8,25.1,29.80,ESE,113,0.0,1.0,93,0.00,,,0.00,LWC V2.11 B50,2013-03-16 11:58:00,
2013-03-16 08:03:00,26.8,25.1,29.79,ESE,110,1.0,1.0,93,0.00,,,0.00,LWC V2.11 B50,2013-03-16 12:03:00,
2013-03-16 08:08:00,26.8,25.1,29.79,ESE,121,0.0,1.0,93,0.00,,,0.00,LWC V2.11 B50,2013-03-16 12:08:00,
2013-03-16 08:13:00,26.8,25.1,29.80,East,91,0.0,0.0,93,0.00,,,0.00,LWC V2.11 B50,2013-03-16 12:13:00,
2013-03-16 08:18:00,26.9,25.2,29.80,SE,146,0.0,0.0,93,0.00,,,0.00,LWC V2.11 B50,2013-03-16 12:18:00,
2013-03-16 08:23:00,26.9,25.2,29.80,ESE,121,0.0,1.0,93,0.00,,,0.00,LWC V2.11 B50,2013-03-16 12:23:00,
2013-03-16 08:28:00,26.9,25.2,29.79,SE,133,0.0,3.0,93,0.00,,,0.00,LWC V2.11 B50,2013-03-16 12:28:00,
2013-03-16 08:33:00,26.9,25.2,29.79,SE,132,0.0,2.0,93,0.00,,,0.00,LWC V2.11 B50,2013-03-16 12:33:00,
2013-03-16 08:38:00,27.0,25.3,29.79,SE,133,1.0,1.0,93,0.00,,,0.00,LWC V2.11 B50,2013-03-16 12:38:00,
2013-03-16 08:43:00,27.0,25.3,29.79,SE,124,0.0,1.0,93,0.00,,,0.00,LWC V2.11 B50,2013-03-16 12:43:00,
2013-03-16 08:48:00,27.1,25.4,29.79,SE,128,0.0,1.0,93,0.00,,,0.00,LWC V2.11 B50,2013-03-16 12:48:00,
2013-03-16 08:53:00,27.1,25.4,29.79,East,93,0.0,0.0,93,0.00,,,0.00,LWC V2.11 B50,2013-03-16 12:53:00,
2013-03-16 08:58:00,27.1,25.4,29.79,SE,139,1.0,2.0,93,0.00,,,0.00,LWC V2.11 B50,2013-03-16 12:58:00,
2013-03-16 09:03:00,27.2,25.5,29.78,ENE,72,0.0,2.0,93,0.00,,,0.00,LWC V2.11 B50,2013-03-16 13:03:00,
2013-03-16 09:08:00,27.3,25.5,29.78,ESE,108,0.0,1.0,93,0.00,,,0.00,LWC V2.11 B50,2013-03-16 13:08:00,
2013-03-16 09:13:00,27.5,25.7,29.79,SE,133,1.0,1.0,93,0.00,,,0.00,LWC V2.11 B50,2013-03-16 13:13:00,
2013-03-16 09:18:00,27.5,25.7,29.78,SE,126,0.0,0.0,93,0.00,,,0.00,LWC V2.11 B50,2013-03-16 13:18:00,
2013-03-16 09:23:00,27.6,25.8,29.78,East,84,0.0,1.0,93,0.00,,,0.00,LWC V2.11 B50,2013-03-16 13:23:00,
2013-03-16 09:28:00,27.6,25.8,29.77,ESE,111,0.0,0.0,93,0.00,,,0.00,LWC V2.11 B50,2013-03-16 13:28:00,
2013-03-16 09:33:00,27.7,25.9,29.77,SE,133,0.0,1.0,93,0.00,,,0.00,LWC V2.11 B50,2013-03-16 13:33:00,
2013-03-16 09:38:00,27.7,25.9,29.77,SE,124,0.0,0.0,93,0.00,,,0.00,LWC V2.11 B50,2013-03-16 13:38:00,
2013-03-16 09:43:00,27.9,26.1,29.76,ESE,103,0.0,2.0,93,0.00,,,0.00,LWC V2.11 B50,2013-03-16 13:43:00,
2013-03-16 09:48:00,28.0,26.2,29.77,SE,124,0.0,1.0,93,0.00,,,0.00,LWC V2.11 B50,2013-03-16 13:48:00,
2013-03-16 09:53:00,28.3,26.5,29.76,SE,124,0.0,2.0,93,0.00,,,0.00,LWC V2.11 B50,2013-03-16 13:53:00,
2013-03-16 09:58:00,28.6,26.8,29.77,ESE,114,0.0,1.0,93,0.00,,,0.00,LWC V2.11 B50,2013-03-16 13:58:00,
2013-03-16 10:03:00,28.8,27.0,29.77,ESE,103,0.0,1.0,93,0.00,,,0.00,LWC V2.11 B50,2013-03-16 14:03:00,
2013-03-16 10:08:00,28.9,26.9,29.76,ESE,111,0.0,1.0,92,0.00,,,0.00,LWC V2.11 B50,2013-03-16 14:08:00,
2013-03-16 10:13:00,28.9,26.9,29.77,SE,125,0.0,1.0,92,0.00,,,0.00,LWC V2.11 B50,2013-03-16 14:13:00,
2013-03-16 10:18:00,29.1,27.1,29.77,SE,131,0.0,0.0,92,0.00,,,0.00,LWC V2.11 B50,2013-03-16 14:18:00,
2013-03-16 10:23:00,29.2,27.2,29.77,SE,133,0.0,0.0,92,0.00,,,0.00,LWC V2.11 B50,2013-03-16 14:23:00,
2013-03-16 10:28:00,29.5,27.5,29.77,SE,133,0.0,0.0,92,0.00,,,0.00,LWC V2.11 B50,2013-03-16 14:28:00,
2013-03-16 10:33:00,29.5,27.5,29.77,East,86,0.0,0.0,92,0.00,,,0.00,LWC V2.11 B50,2013-03-16 14:33:00,
2013-03-16 10:38:00,29.8,27.8,29.77,East,98,0.0,1.0,92,0.00,,,0.00,LWC V2.11 B50,2013-03-16 14:38:00,
2013-03-16 10:43:00,29.9,27.6,29.76,ENE,66,0.0,0.0,91,0.00,,,0.00,LWC V2.11 B50,2013-03-16 14:43:00,
2013-03-16 10:48:00,30.0,27.7,29.76,ENE,78,0.0,1.0,91,0.00,,,0.00,LWC V2.11 B50,2013-03-16 14:48:00,
2013-03-16 10:54:00,30.2,27.9,29.75,East,85,0.0,1.0,91,0.00,,,0.00,LWC V2.11 B50,2013-03-16 14:54:00,
2013-03-16 10:59:00,30.9,28.9,29.75,ESE,122,0.0,1.0,92,0.00,,,0.00,LWC V2.11 B50,2013-03-16 14:59:00,
2013-03-16 11:04:00,31.6,29.3,29.75,SE,133,0.0,1.0,91,0.00,,,0.00,LWC V2.11 B50,2013-03-16 15:04:00,
2013-03-16 11:09:00,31.9,29.3,29.75,ESE,118,1.0,2.0,90,0.00,,,0.00,LWC V2.11 B50,2013-03-16 15:09:00,
2013-03-16 11:14:00,31.8,28.9,29.75,SE,146,0.0,0.0,89,0.00,,,0.00,LWC V2.11 B50,2013-03-16 15:14:00,
2013-03-16 11:19:00,31.7,28.8,29.75,SE,144,0.0,1.0,89,0.00,,,0.00,LWC V2.11 B50,2013-03-16 15:19:00,
2013-03-16 11:24:00,31.8,29.2,29.75,SE,131,0.0,1.0,90,0.00,,,0.00,LWC V2.11 B50,2013-03-16 15:24:00,
2013-03-16 11:29:00,31.8,28.9,29.75,SSE,149,0.0,1.0,89,0.00,,,0.00,LWC V2.11 B50,2013-03-16 15:29:00,
2013-03-16 11:34:00,31.9,29.3,29.75,ESE,118,0.0,0.0,90,0.00,,,0.00,LWC V2.11 B50,2013-03-16 15:34:00,
2013-03-16 11:39:00,32.0,29.1,29.75,ESE,119,0.0,1.0,89,0.00,,,0.00,LWC V2.11 B50,2013-03-16 15:39:00,
2013-03-16 11:44:00,32.3,29.4,29.75,East,86,1.0,1.0,89,0.00,,,0.00,LWC V2.11 B50,2013-03-16 15:44:00,
2013-03-16 11:49:00,32.4,29.5,29.75,East,82,2.0,2.0,89,0.00,,,0.00,LWC V2.11 B50,2013-03-16 15:49:00,
2013-03-16 11:54:00,32.2,29.3,29.75,ENE,62,1.0,3.0,89,0.00,,,0.00,LWC V2.11 B50,2013-03-16 15:54:00,
2013-03-16 11:59:00,32.1,29.2,29.74,East,94,1.0,2.0,89,0.00,,,0.00,LWC V2.11 B50,2013-03-16 15:59:00,
2013-03-16 12:04:00,32.1,29.2,29.74,ENE,77,2.0,6.0,89,0.00,,,0.00,LWC V2.11 B50,2013-03-16 16:04:00,
2013-03-16 12:09:00,32.1,29.2,29.74,East,85,2.0,2.0,89,0.00,,,0.00,LWC V2.11 B50,2013-03-16 16:09:00,
2013-03-16 12:14:00,32.1,29.2,29.74,East,84,0.0,1.0,89,0.00,,,0.00,LWC V2.11 B50,2013-03-16 16:14:00,
2013-03-16 12:19:00,32.2,29.6,29.74,SSE,162,1.0,3.0,90,0.00,,,0.00,LWC V2.11 B50,2013-03-16 16:19:00,
2013-03-16 12:24:00,32.4,29.8,29.74,East,89,1.0,1.0,90,0.00,,,0.00,LWC V2.11 B50,2013-03-16 16:24:00,
2013-03-16 12:29:00,32.6,30.0,29.74,East,81,0.0,1.0,90,0.00,,,0.00,LWC V2.11 B50,2013-03-16 16:29:00,
2013-03-16 12:34:00,32.9,30.3,29.74,NE,49,2.0,2.0,90,0.00,,,0.00,LWC V2.11 B50,2013-03-16 16:34:00,
2013-03-16 12:39:00,32.7,29.8,29.73,ENE,74,1.0,4.0,89,0.00,,,0.00,LWC V2.11 B50,2013-03-16 16:39:00,
2013-03-16 12:44:00,32.6,29.7,29.73,ENE,77,5.0,6.0,89,0.00,,,0.00,LWC V2.11 B50,2013-03-16 16:44:00,
2013-03-16 12:49:00,32.7,29.8,29.73,SE,141,0.0,3.0,89,0.00,,,0.00,LWC V2.11 B50,2013-03-16 16:49:00,
2013-03-16 12:54:00,32.7,29.8,29.73,East,84,5.0,6.0,89,0.00,,,0.00,LWC V2.11 B50,2013-03-16 16:54:00,
2013-03-16 12:59:00,32.6,29.7,29.73,ENE,72,1.0,1.0,89,0.00,,,0.00,LWC V2.11 B50,2013-03-16 16:59:00,
2013-03-16 13:04:00,32.7,30.1,29.73,North,11,4.0,4.0,90,0.00,,,0.00,LWC V2.11 B50,2013-03-16 17:04:00,
2013-03-16 13:09:00,32.8,30.2,29.73,ENE,60,2.0,3.0,90,0.00,,,0.00,LWC V2.11 B50,2013-03-16 17:09:00,
2013-03-16 13:14:00,32.9,30.6,29.73,ENE,60,0.0,1.0,91,0.00,,,0.00,LWC V2.11 B50,2013-03-16 17:14:00,
2013-03-16 13:19:00,32.9,30.3,29.73,East,99,0.0,3.0,90,0.00,,,0.00,LWC V2.11 B50,2013-03-16 17:19:00,
2013-03-16 13:24:00,32.8,30.2,29.73,East,81,1.0,3.0,90,0.00,,,0.00,LWC V2.11 B50,2013-03-16 17:24:00,
2013-03-16 13:29:00,32.9,30.3,29.73,ENE,75,0.0,2.0,90,0.00,,,0.00,LWC V2.11 B50,2013-03-16 17:29:00,
2013-03-16 13:34:00,32.9,30.3,29.73,ENE,63,2.0,4.0,90,0.00,,,0.00,LWC V2.11 B50,2013-03-16 17:34:00,
2013-03-16 13:39:00,32.7,29.8,29.73,NE,44,2.0,3.0,89,0.00,,,0.00,LWC V2.11 B50,2013-03-16 17:39:00,
2013-03-16 13:44:00,32.5,29.6,29.74,NE,56,0.0,2.0,89,0.00,,,0.00,LWC V2.11 B50,2013-03-16 17:44:00,
2013-03-16 13:49:00,32.5,29.6,29.73,East,82,1.0,4.0,89,0.00,,,0.00,LWC V2.11 B50,2013-03-16 17:49:00,
2013-03-16 13:54:00,32.3,29.4,29.74,ENE,60,1.0,1.0,89,0.00,,,0.00,LWC V2.11 B50,2013-03-16 17:54:00,
2013-03-16 13:59:00,32.5,29.6,29.74,ENE,70,1.0,2.0,89,0.00,,,0.00,LWC V2.11 B50,2013-03-16 17:59:00,
2013-03-16 14:04:00,32.6,29.7,29.74,NE,53,2.0,5.0,89,0.00,,,0.00,LWC V2.11 B50,2013-03-16 18:04:00,
2013-03-16 14:09:00,32.6,29.7,29.74,ENE,68,2.0,4.0,89,0.00,,,0.00,LWC V2.11 B50,2013-03-16 18:09:00,
2013-03-16 14:14:00,32.5,29.3,29.74,ENE,74,3.0,7.0,88,0.00,,,0.00,LWC V2.11 B50,2013-03-16 18:14:00,
2013-03-16 14:19:00,32.5,29.6,29.75,ENE,61,0.0,1.0,89,0.00,,,0.00,LWC V2.11 B50,2013-03-16 18:19:00,
2013-03-16 14:24:00,32.5,29.3,29.75,East,86,4.0,8.0,88,0.00,,,0.00,LWC V2.11 B50,2013-03-16 18:24:00,
2013-03-16 14:29:00,32.4,29.2,29.75,ENE,74,0.0,1.0,88,0.00,,,0.00,LWC V2.11 B50,2013-03-16 18:29:00,
2013-03-16 14:34:00,32.5,29.3,29.75,ENE,70,3.0,3.0,88,0.00,,,0.00,LWC V2.11 B50,2013-03-16 18:34:00,
2013-03-16 14:39:00,32.6,29.4,29.75,ENE,67,2.0,2.0,88,0.00,,,0.00,LWC V2.11 B50,2013-03-16 18:39:00,
2013-03-16 14:44:00,32.5,29.6,29.76,North,8,2.0,2.0,89,0.00,,,0.00,LWC V2.11 B50,2013-03-16 18:44:00,
2013-03-16 14:49:00,32.3,29.4,29.76,ENE,64,0.0,3.0,89,0.00,,,0.00,LWC V2.11 B50,2013-03-16 18:49:00,
2013-03-16 14:54:00,32.1,29.2,29.76,NE,56,4.0,9.0,89,0.00,,,0.00,LWC V2.11 B50,2013-03-16 18:54:00,
2013-03-16 14:59:00,32.0,29.1,29.76,ENE,70,8.0,8.0,89,0.00,,,0.00,LWC V2.11 B50,2013-03-16 18:59:00,
2013-03-16 15:04:00,31.8,28.9,29.76,NE,53,1.0,4.0,89,0.00,,,0.00,LWC V2.11 B50,2013-03-16 19:04:00,
2013-03-16 15:09:00,31.7,28.8,29.77,NW,324,2.0,5.0,89,0.00,,,0.00,LWC V2.11 B50,2013-03-16 19:09:00,
2013-03-16 15:14:00,31.3,28.4,29.77,NNE,16,3.0,8.0,89,0.00,,,0.00,LWC V2.11 B50,2013-03-16 19:14:00,
2013-03-16 15:19:00,31.1,28.2,29.77,North,356,2.0,8.0,89,0.00,,,0.00,LWC V2.11 B50,2013-03-16 19:19:00,
2013-03-16 15:24:00,30.9,28.3,29.77,NNW,332,4.0,5.0,90,0.00,,,0.00,LWC V2.11 B50,2013-03-16 19:24:00,
2013-03-16 15:29:00,30.8,27.9,29.78,North,9,2.0,5.0,89,0.00,,,0.00,LWC V2.11 B50,2013-03-16 19:29:00,
2013-03-16 15:34:00,30.5,27.7,29.78,East,81,1.0,8.0,89,0.00,,,0.00,LWC V2.11 B50,2013-03-16 19:34:00,
2013-03-16 15:39:00,30.5,27.7,29.78,NNW,347,0.0,2.0,89,0.00,,,0.00,LWC V2.11 B50,2013-03-16 19:39:00,
2013-03-16 15:44:00,30.2,27.1,29.79,NW,309,1.0,7.0,88,0.00,,,0.00,LWC V2.11 B50,2013-03-16 19:44:00,
2013-03-16 15:49:00,30.0,27.2,29.79,NNW,334,4.0,10.0,89,0.00,,,0.00,LWC V2.11 B50,2013-03-16 19:49:00,
2013-03-16 15:54:00,29.9,27.1,29.80,NNE,27,0.0,4.0,89,0.00,,,0.00,LWC V2.11 B50,2013-03-16 19:54:00,
2013-03-16 15:59:00,29.9,27.1,29.80,NNW,340,2.0,4.0,89,0.00,,,0.00,LWC V2.11 B50,2013-03-16 19:59:00,
2013-03-16 16:04:00,29.8,27.0,29.80,NNW,336,5.0,6.0,89,0.00,,,0.00,LWC V2.11 B50,2013-03-16 20:04:00,
2013-03-16 16:09:00,29.6,26.8,29.81,NNW,338,4.0,6.0,89,0.00,,,0.00,LWC V2.11 B50,2013-03-16 20:09:00,
2013-03-16 16:14:00,29.6,26.8,29.81,NNW,328,0.0,3.0,89,0.00,,,0.00,LWC V2.11 B50,2013-03-16 20:14:00,
2013-03-16 16:19:00,29.6,26.8,29.81,NNE,33,2.0,4.0,89,0.00,,,0.00,LWC V2.11 B50,2013-03-16 20:19:00,
2013-03-16 16:24:00,29.7,26.6,29.81,ENE,71,0.0,5.0,88,0.00,,,0.00,LWC V2.11 B50,2013-03-16 20:24:00,
2013-03-16 16:29:00,29.9,26.8,29.82,NE,56,1.0,3.0,88,0.00,,,0.00,LWC V2.11 B50,2013-03-16 20:29:00,
2013-03-16 16:34:00,30.0,26.9,29.82,East,81,2.0,3.0,88,0.00,,,0.00,LWC V2.11 B50,2013-03-16 20:34:00,
2013-03-16 16:39:00,30.1,27.0,29.82,NW,320,0.0,1.0,88,0.00,,,0.00,LWC V2.11 B50,2013-03-16 20:39:00,
2013-03-16 16:44:00,29.9,26.2,29.82,NNW,337,0.0,6.0,86,0.00,,,0.00,LWC V2.11 B50,2013-03-16 20:44:00,
2013-03-16 16:49:00,29.8,26.4,29.82,WNW,302,6.0,6.0,87,0.00,,,0.00,LWC V2.11 B50,2013-03-16 20:49:00,
2013-03-16 16:54:00,29.7,26.3,29.82,NNW,338,0.0,1.0,87,0.00,,,0.00,LWC V2.11 B50,2013-03-16 20:54:00,
2013-03-16 16:59:00,30.0,26.6,29.83,NNW,339,1.0,4.0,87,0.00,,,0.00,LWC V2.11 B50,2013-03-16 20:59:00,
2013-03-16 17:04:00,29.9,26.2,29.83,NE,34,4.0,5.0,86,0.00,,,0.00,LWC V2.11 B50,2013-03-16 21:04:00,
2013-03-16 17:09:00,29.9,26.2,29.83,WNW,295,1.0,6.0,86,0.00,,,0.00,LWC V2.11 B50,2013-03-16 21:09:00,
2013-03-16 17:14:00,29.9,26.2,29.84,ENE,77,4.0,6.0,86,0.00,,,0.00,LWC V2.11 B50,2013-03-16 21:14:00,
2013-03-16 17:19:00,29.9,26.5,29.84,NNW,329,2.0,2.0,87,0.00,,,0.00,LWC V2.11 B50,2013-03-16 21:19:00,
2013-03-16 17:24:00,29.9,26.5,29.84,ENE,65,1.0,3.0,87,0.00,,,0.00,LWC V2.11 B50,2013-03-16 21:24:00,
2013-03-16 17:29:00,29.8,26.1,29.84,NW,320,1.0,5.0,86,0.00,,,0.00,LWC V2.11 B50,2013-03-16 21:29:00,
2013-03-16 17:34:00,29.7,26.0,29.84,NE,53,0.0,3.0,86,0.00,,,0.00,LWC V2.11 B50,2013-03-16 21:34:00,
2013-03-16 17:39:00,29.8,26.4,29.85,NW,320,1.0,1.0,87,0.00,,,0.00,LWC V2.11 B50,2013-03-16 21:39:00,
2013-03-16 17:44:00,29.8,26.1,29.85,NW,323,1.0,3.0,86,0.00,,,0.00,LWC V2.11 B50,2013-03-16 21:44:00,
2013-03-16 17:49:00,29.8,26.1,29.85,NW,316,5.0,5.0,86,0.00,,,0.00,LWC V2.11 B50,2013-03-16 21:49:00,
2013-03-16 17:54:00,29.7,26.0,29.85,NNW,344,2.0,4.0,86,0.00,,,0.00,LWC V2.11 B50,2013-03-16 21:54:00,
2013-03-16 17:59:00,29.8,26.4,29.85,North,359,0.0,0.0,87,0.00,,,0.00,LWC V2.11 B50,2013-03-16 21:59:00,
2013-03-16 18:04:00,29.9,26.5,29.86,NW,318,3.0,3.0,87,0.00,,,0.00,LWC V2.11 B50,2013-03-16 22:04:00,
2013-03-16 18:09:00,29.8,26.1,29.86,NNW,329,2.0,3.0,86,0.00,,,0.00,LWC V2.11 B50,2013-03-16 22:09:00,
2013-03-16 18:14:00,29.8,26.1,29.86,NW,323,0.0,1.0,86,0.00,,,0.00,LWC V2.11 B50,2013-03-16 22:14:00,
2013-03-16 18:19:00,29.8,26.1,29.86,NNE,25,3.0,3.0,86,0.00,,,0.00,LWC V2.11 B50,2013-03-16 22:19:00,
2013-03-16 18:24:00,29.7,26.0,29.86,North,355,0.0,2.0,86,0.00,,,0.00,LWC V2.11 B50,2013-03-16 22:24:00,
2013-03-16 18:29:00,29.7,26.3,29.87,NW,312,0.0,1.0,87,0.00,,,0.00,LWC V2.11 B50,2013-03-16 22:29:00,
2013-03-16 18:34:00,29.6,25.9,29.87,NNW,345,1.0,2.0,86,0.00,,,0.00,LWC V2.11 B50,2013-03-16 22:34:00,
2013-03-16 18:39:00,29.6,25.9,29.88,NW,321,3.0,5.0,86,0.00,,,0.00,LWC V2.11 B50,2013-03-16 22:39:00,
2013-03-16 18:44:00,29.5,25.6,29.88,NW,320,3.0,4.0,85,0.00,,,0.00,LWC V2.11 B50,2013-03-16 22:44:00,
2013-03-16 18:49:00,29.5,25.8,29.88,NW,318,1.0,1.0,86,0.00,,,0.00,LWC V2.11 B50,2013-03-16 22:49:00,
2013-03-16 18:54:00,29.4,25.7,29.89,NW,325,0.0,3.0,86,0.00,,,0.00,LWC V2.11 B50,2013-03-16 22:54:00,
2013-03-16 18:59:00,29.3,25.9,29.89,NW,320,1.0,1.0,87,0.00,,,0.00,LWC V2.11 B50,2013-03-16 22:59:00,
2013-03-16 19:04:00,29.3,25.6,29.89,NW,304,1.0,4.0,86,0.00,,,0.00,LWC V2.11 B50,2013-03-16 23:04:00,
2013-03-16 19:09:00,29.1,25.4,29.89,WNW,293,0.0,1.0,86,0.00,,,0.00,LWC V2.11 B50,2013-03-16 23:09:00,
2013-03-16 19:14:00,29.0,25.3,29.90,NW,317,1.0,5.0,86,0.00,,,0.00,LWC V2.11 B50,2013-03-16 23:14:00,
2013-03-16 19:19:00,28.9,25.5,29.90,NW,318,1.0,2.0,87,0.00,,,0.00,LWC V2.11 B50,2013-03-16 23:19:00,
2013-03-16 19:24:00,28.7,25.1,29.90,NW,314,4.0,4.0,86,0.00,,,0.00,LWC V2.11 B50,2013-03-16 23:24:00,
2013-03-16 19:30:00,28.5,24.9,29.91,NNW,337,2.0,6.0,86,0.00,,,0.00,LWC V2.11 B50,2013-03-16 23:30:00,
2013-03-16 19:35:00,28.4,24.8,29.92,NW,321,3.0,6.0,86,0.00,,,0.00,LWC V2.11 B50,2013-03-16 23:35:00,
2013-03-16 19:40:00,28.2,24.8,29.92,NNW,329,3.0,6.0,87,0.00,,,0.00,LWC V2.11 B50,2013-03-16 23:40:00,
2013-03-16 19:45:00,28.0,24.6,29.92,NW,320,2.0,7.0,87,0.00,,,0.00,LWC V2.11 B50,2013-03-16 23:45:00,
2013-03-16 19:50:00,27.8,24.4,29.93,NNW,330,2.0,5.0,87,0.00,,,0.00,LWC V2.11 B50,2013-03-16 23:50:00,
2013-03-16 19:55:00,27.7,24.3,29.93,NW,316,3.0,6.0,87,0.00,,,0.00,LWC V2.11 B50,2013-03-16 23:55:00,
2013-03-16 20:00:00,27.5,24.1,29.93,NW,322,1.0,3.0,87,0.00,,,0.00,LWC V2.11 B50,2013-03-17 00:00:00,
2013-03-16 20:05:00,27.4,24.0,29.94,North,350,4.0,4.0,87,0.00,,,0.00,LWC V2.11 B50,2013-03-17 00:05:00,
2013-03-16 20:10:00,27.2,23.9,29.94,WNW,303,6.0,6.0,87,0.00,,,0.00,LWC V2.11 B50,2013-03-17 00:10:00,
2013-03-16 20:15:00,27.0,23.4,29.95,NNW,334,6.0,6.0,86,0.00,,,0.00,LWC V2.11 B50,2013-03-17 00:15:00,
2013-03-16 20:20:00,26.8,23.2,29.95,WNW,302,3.0,6.0,86,0.00,,,0.00,LWC V2.11 B50,2013-03-17 00:20:00,
2013-03-16 20:25:00,26.6,23.0,29.95,North,351,1.0,3.0,86,0.00,,,0.00,LWC V2.11 B50,2013-03-17 00:25:00,
2013-03-16 20:30:00,26.4,23.1,29.95,NW,324,3.0,4.0,87,0.00,,,0.00,LWC V2.11 B50,2013-03-17 00:30:00,
2013-03-16 20:35:00,26.2,22.9,29.95,NNW,329,0.0,3.0,87,0.00,,,0.00,LWC V2.11 B50,2013-03-17 00:35:00,
2013-03-16 20:40:00,26.0,22.7,29.96,NW,304,3.0,5.0,87,0.00,,,0.00,LWC V2.11 B50,2013-03-17 00:40:00,
2013-03-16 20:45:00,25.8,22.5,29.97,NNW,332,2.0,6.0,87,0.00,,,0.00,LWC V2.11 B50,2013-03-17 00:45:00,
2013-03-16 20:50:00,25.7,22.4,29.97,NW,320,1.0,4.0,87,0.00,,,0.00,LWC V2.11 B50,2013-03-17 00:50:00,
2013-03-16 20:55:00,25.6,22.3,29.97,NW,325,1.0,4.0,87,0.00,,,0.00,LWC V2.11 B50,2013-03-17 00:55:00,
2013-03-16 21:00:00,25.4,22.1,29.97,NNW,340,1.0,3.0,87,0.00,,,0.00,LWC V2.11 B50,2013-03-17 01:00:00,
2013-03-16 21:05:00,25.2,21.9,29.98,NNW,327,3.0,5.0,87,0.00,,,0.00,LWC V2.11 B50,2013-03-17 01:05:00,
2013-03-16 21:10:00,25.0,21.7,29.98,NNW,329,1.0,1.0,87,0.00,,,0.00,LWC V2.11 B50,2013-03-17 01:10:00,
2013-03-16 21:15:00,24.8,21.5,29.98,NNW,338,1.0,2.0,87,0.00,,,0.00,LWC V2.11 B50,2013-03-17 01:15:00,
2013-03-16 21:20:00,24.6,21.3,29.98,NW,314,0.0,1.0,87,0.00,,,0.00,LWC V2.11 B50,2013-03-17 01:20:00,
2013-03-16 21:25:00,24.5,21.2,29.98,NNW,327,0.0,1.0,87,0.00,,,0.00,LWC V2.11 B50,2013-03-17 01:25:00,
2013-03-16 21:30:00,24.2,20.9,29.98,NW,326,0.0,1.0,87,0.00,,,0.00,LWC V2.11 B50,2013-03-17 01:30:00,
2013-03-16 21:35:00,23.9,20.9,29.99,NW,315,0.0,1.0,88,0.00,,,0.00,LWC V2.11 B50,2013-03-17 01:35:00,
2013-03-16 21:40:00,23.6,20.6,29.99,NW,315,0.0,0.0,88,0.00,,,0.00,LWC V2.11 B50,2013-03-17 01:40:00,
2013-03-16 21:45:00,23.2,20.2,29.99,NW,315,0.0,0.0,88,0.00,,,0.00,LWC V2.11 B50,2013-03-17 01:45:00,
2013-03-16 21:50:00,23.0,20.0,29.99,NW,314,0.0,0.0,88,0.00,,,0.00,LWC V2.11 B50,2013-03-17 01:50:00,
2013-03-16 21:55:00,22.9,20.2,29.99,NW,315,0.0,0.0,89,0.00,,,0.00,LWC V2.11 B50,2013-03-17 01:55:00,
2013-03-16 22:00:00,22.9,20.2,30.00,NW,315,0.0,0.0,89,0.00,,,0.00,LWC V2.11 B50,2013-03-17 02:00:00,
2013-03-16 22:05:00,22.9,20.2,29.99,NW,315,0.0,0.0,89,0.00,,,0.00,LWC V2.11 B50,2013-03-17 02:05:00,
2013-03-16 22:10:00,23.0,20.3,30.00,NW,315,0.0,0.0,89,0.00,,,0.00,LWC V2.11 B50,2013-03-17 02:10:00,
2013-03-16 22:15:00,23.1,20.4,30.00,NW,315,1.0,1.0,89,0.00,,,0.00,LWC V2.11 B50,2013-03-17 02:15:00,
2013-03-16 22:20:00,23.4,20.6,30.00,NNW,329,1.0,1.0,89,0.00,,,0.00,LWC V2.11 B50,2013-03-17 02:20:00,
2013-03-16 22:25:00,23.6,20.8,30.00,NNW,337,0.0,1.0,89,0.00,,,0.00,LWC V2.11 B50,2013-03-17 02:25:00,
2013-03-16 22:30:00,23.8,21.0,30.00,NW,312,0.0,1.0,89,0.00,,,0.00,LWC V2.11 B50,2013-03-17 02:30:00,
2013-03-16 22:35:00,23.9,21.1,30.01,NW,312,0.0,0.0,89,0.00,,,0.00,LWC V2.11 B50,2013-03-17 02:35:00,
2013-03-16 22:40:00,24.0,21.0,30.01,NW,312,0.0,0.0,88,0.00,,,0.00,LWC V2.11 B50,2013-03-17 02:40:00,
2013-03-16 22:45:00,24.2,21.2,30.01,NW,320,0.0,1.0,88,0.00,,,0.00,LWC V2.11 B50,2013-03-17 02:45:00,
2013-03-16 22:50:00,24.3,21.3,30.01,NW,318,0.0,0.0,88,0.00,,,0.00,LWC V2.11 B50,2013-03-17 02:50:00,
2013-03-16 22:55:00,24.4,21.6,30.01,NNE,15,0.0,1.0,89,0.00,,,0.00,LWC V2.11 B50,2013-03-17 02:55:00,
2013-03-16 23:00:00,24.4,21.6,30.00,NNW,329,0.0,1.0,89,0.00,,,0.00,LWC V2.11 B50,2013-03-17 03:00:00,
2013-03-16 23:05:00,24.4,21.4,30.00,NW,312,4.0,5.0,88,0.00,,,0.00,LWC V2.11 B50,2013-03-17 03:05:00,
2013-03-16 23:10:00,24.6,21.3,30.00,NW,321,0.0,2.0,87,0.00,,,0.00,LWC V2.11 B50,2013-03-17 03:10:00,
2013-03-16 23:15:00,24.6,21.3,30.01,North,5,1.0,5.0,87,0.00,,,0.00,LWC V2.11 B50,2013-03-17 03:15:00,
2013-03-16 23:20:00,24.7,21.4,30.01,NW,317,0.0,1.0,87,0.00,,,0.00,LWC V2.11 B50,2013-03-17 03:20:00,
2013-03-16 23:25:00,24.6,21.3,30.01,NNW,335,1.0,1.0,87,0.00,,,0.00,LWC V2.11 B50,2013-03-17 03:25:00,
2013-03-16 23:30:00,24.7,21.1,30.01,NNE,13,0.0,3.0,86,0.00,,,0.00,LWC V2.11 B50,2013-03-17 03:30:00,
2013-03-16 23:35:00,24.7,21.4,30.02,NNW,334,0.0,0.0,87,0.00,,,0.00,LWC V2.11 B50,2013-03-17 03:35:00,
2013-03-16 23:40:00,24.7,21.4,30.02,NW,314,0.0,2.0,87,0.00,,,0.00,LWC V2.11 B50,2013-03-17 03:40:00,
2013-03-16 23:45:00,24.7,21.4,30.02,NW,315,0.0,0.0,87,0.00,,,0.00,LWC V2.11 B50,2013-03-17 03:45:00,
2013-03-16 23:50:00,24.7,21.1,30.03,NNW,328,0.0,2.0,86,0.00,,,0.00,LWC V2.11 B50,2013-03-17 03:50:00,
2013-03-16 23:55:00,24.7,21.4,30.02,NNW,340,0.0,1.0,87,0.00,,,0.00,LWC V2.11 B50,2013-03-17 03:55:00,